This is the latest recevied weather packets stored in our database for station/object N5PLO-10. If no packets are shown the sender has not sent any weather packets the latest 10 day(s).
| Time | Temp. | Humidity | Pressure | Rain* | Wind** | Luminosity | Snow |
|---|---|---|---|---|---|---|---|
| 1777679081 | 14.44° C | 99% | 1014.7 hPa | 0 mm | - | 9 W/m² | - |
| 1777678780 | 14.44° C | 99% | 1014.6 hPa | 0 mm | - | 8 W/m² | - |
| 1777678477 | 14.44° C | 99% | 1014.6 hPa | 0 mm | - | 8 W/m² | - |
| 1777678173 | 15° C | 99% | 1014.3 hPa | 0 mm | - | 12 W/m² | - |
| 1777677870 | 15° C | 99% | 1014 hPa | 0 mm | - | 24 W/m² | - |
| 1777677567 | 15° C | 99% | 1014.4 hPa | 1.27 mm | - | 34 W/m² | - |
| 1777677266 | 15° C | 99% | 1015.1 hPa | 1.27 mm | - | 23 W/m² | - |
| 1777676963 | 15° C | 99% | 1015 hPa | 0 mm | - | 19 W/m² | - |
| 1777676662 | 15° C | 99% | 1014.5 hPa | 0 mm | - | 12 W/m² | - |
| 1777676359 | 15° C | 99% | 1014.5 hPa | 0 mm | - | 12 W/m² | - |
| 1777676057 | 15° C | 99% | 1014.2 hPa | 0 mm | - | 8 W/m² | - |
| 1777675752 | 15° C | 99% | 1012.9 hPa | 0 mm | - | 16 W/m² | - |
| 1777675450 | 15° C | 99% | 1012.7 hPa | 0 mm | - | 24 W/m² | - |
| 1777675147 | 15° C | 99% | 1012.8 hPa | 0 mm | - | 29 W/m² | - |
| 1777674843 | 15° C | 99% | 1013.2 hPa | 0 mm | - | 36 W/m² | - |
| 1777674539 | 15° C | 99% | 1013.1 hPa | 0 mm | - | 68 W/m² | - |
| 1777674237 | 15.56° C | 99% | 1013.1 hPa | 1.78 mm | - | 63 W/m² | - |
| 1777673933 | 15° C | 99% | 1013.4 hPa | 1.78 mm | - | 93 W/m² | - |
| 1777673630 | 15° C | 99% | 1013.7 hPa | 0 mm | - | 66 W/m² | - |
| 1777673328 | 15° C | 99% | 1014.1 hPa | 0 mm | - | 56 W/m² | - |
| 1777673025 | 15.56° C | 99% | 1014.3 hPa | 0 mm | - | 62 W/m² | - |
| 1777672721 | 15.56° C | 99% | 1014.6 hPa | 0 mm | - | 56 W/m² | - |
| 1777672418 | 15.56° C | 99% | 1014.9 hPa | 0 mm | - | 35 W/m² | - |
| 1777672113 | 15.56° C | 99% | - | 0 mm | - | - | - |
| 1777671808 | 15.56° C | 99% | - | 0 mm | - | - | - |
* Rain latest hour (hover to see other rain measurements)
** Current wind speed in m/s (hover to see current wind gust speed)